Time,TemperatureF,DewpointF,PressureIn,WindDirection,WindDirectionDegrees,WindSpeedMPH,WindSpeedGustMPH,Humidity,HourlyPrecipIn,Conditions,Clouds,dailyrainin,SolarRadiationWatts/m^2,SoftwareType,DateUTC
2013-01-04 00:00:00,18.8,13.4,30.40,NW,317,2.0,11.0,79,0.00,,,0.00,0,Wunderground v.1.15,2013-01-04 06:00:00,
2013-01-04 00:07:00,18.7,13.6,30.40,NW,317,2.0,11.0,80,0.00,,,0.00,0,Wunderground v.1.15,2013-01-04 06:07:00,
2013-01-04 00:12:00,18.8,13.7,30.40,NW,317,2.0,11.0,80,0.00,,,0.00,0,Wunderground v.1.15,2013-01-04 06:12:00,
2013-01-04 00:19:00,18.9,14.0,30.40,NW,317,1.0,11.0,81,0.00,,,0.00,0,Wunderground v.1.15,2013-01-04 06:19:00,
2013-01-04 00:25:00,19.2,14.6,30.40,NW,317,1.0,11.0,82,0.00,,,0.00,0,Wunderground v.1.15,2013-01-04 06:25:00,
2013-01-04 00:30:00,19.3,14.7,30.40,NW,317,1.0,11.0,82,0.00,,,0.00,0,Wunderground v.1.15,2013-01-04 06:30:00,
2013-01-04 00:37:00,19.5,14.9,30.40,NW,317,1.0,11.0,82,0.00,,,0.00,0,Wunderground v.1.15,2013-01-04 06:37:00,
2013-01-04 00:42:00,19.7,15.4,30.39,NW,317,2.0,11.0,83,0.00,,,0.00,0,Wunderground v.1.15,2013-01-04 06:42:00,
2013-01-04 00:49:00,19.9,15.6,30.40,NW,317,1.0,1.0,83,0.00,,,0.00,0,Wunderground v.1.15,2013-01-04 06:49:00,
2013-01-04 00:54:00,20.0,15.7,30.40,NW,317,0.0,11.0,83,0.00,,,0.00,0,Wunderground v.1.15,2013-01-04 06:54:00,
2013-01-04 01:00:00,20.1,15.8,30.40,NW,317,1.0,11.0,83,0.00,,,0.00,0,Wunderground v.1.15,2013-01-04 07:00:00,
2013-01-04 01:06:00,20.1,15.8,30.40,NW,317,1.0,11.0,83,0.00,,,0.00,0,Wunderground v.1.15,2013-01-04 07:06:00,
2013-01-04 01:12:00,20.1,15.8,30.39,NW,317,1.0,1.0,83,0.00,,,0.00,0,Wunderground v.1.15,2013-01-04 07:12:00,
2013-01-04 01:18:00,20.1,15.8,30.39,NW,317,0.0,0.0,83,0.00,,,0.00,0,Wunderground v.1.15,2013-01-04 07:18:00,
2013-01-04 01:25:00,20.1,16.0,30.39,NW,317,0.0,2.0,84,0.00,,,0.00,0,Wunderground v.1.15,2013-01-04 07:25:00,
2013-01-04 01:31:00,20.1,15.8,30.39,NW,317,1.0,2.0,83,0.00,,,0.00,0,Wunderground v.1.15,2013-01-04 07:31:00,
2013-01-04 01:36:00,20.0,15.7,30.39,NW,317,1.0,2.0,83,0.00,,,0.00,0,Wunderground v.1.15,2013-01-04 07:36:00,
2013-01-04 01:43:00,19.8,15.5,30.38,NW,317,1.0,1.0,83,0.00,,,0.00,0,Wunderground v.1.15,2013-01-04 07:43:00,
2013-01-04 01:48:00,19.6,15.3,30.38,NW,317,0.0,3.0,83,0.00,,,0.00,0,Wunderground v.1.15,2013-01-04 07:48:00,
2013-01-04 01:55:00,19.4,15.1,30.38,NW,317,1.0,3.0,83,0.00,,,0.00,0,Wunderground v.1.15,2013-01-04 07:55:00,
2013-01-04 02:00:00,19.3,15.0,30.38,NW,317,1.0,3.0,83,0.00,,,0.00,0,Wunderground v.1.15,2013-01-04 08:00:00,
2013-01-04 02:07:00,19.1,14.8,30.38,NW,317,1.0,3.0,83,0.00,,,0.00,0,Wunderground v.1.15,2013-01-04 08:07:00,
2013-01-04 02:13:00,18.9,14.6,30.38,NW,317,1.0,3.0,83,0.00,,,0.00,0,Wunderground v.1.15,2013-01-04 08:13:00,
2013-01-04 02:18:00,18.7,14.4,30.38,NW,317,1.0,3.0,83,0.00,,,0.00,0,Wunderground v.1.15,2013-01-04 08:18:00,
2013-01-04 02:25:00,18.5,14.2,30.38,NW,317,1.0,3.0,83,0.00,,,0.00,0,Wunderground v.1.15,2013-01-04 08:25:00,
2013-01-04 02:30:00,18.4,14.1,30.38,NW,317,2.0,3.0,83,0.00,,,0.00,0,Wunderground v.1.15,2013-01-04 08:30:00,
2013-01-04 02:36:00,18.2,13.9,30.38,NW,315,2.0,3.0,83,0.00,,,0.00,0,Wunderground v.1.15,2013-01-04 08:36:00,
2013-01-04 02:43:00,18.1,13.5,30.38,NW,315,2.0,3.0,82,0.00,,,0.00,0,Wunderground v.1.15,2013-01-04 08:43:00,
2013-01-04 02:48:00,17.9,13.3,30.38,NW,315,1.0,1.0,82,0.00,,,0.00,0,Wunderground v.1.15,2013-01-04 08:48:00,
2013-01-04 02:54:00,17.8,13.5,30.38,NW,315,0.0,3.0,83,0.00,,,0.00,0,Wunderground v.1.15,2013-01-04 08:54:00,
2013-01-04 03:01:00,17.4,12.8,30.38,NW,315,0.0,3.0,82,0.00,,,0.00,0,Wunderground v.1.15,2013-01-04 09:01:00,
2013-01-04 03:06:00,16.7,11.9,30.38,NW,315,0.0,3.0,81,0.00,,,0.00,0,Wunderground v.1.15,2013-01-04 09:06:00,
2013-01-04 03:13:00,16.1,11.3,30.37,NW,315,0.0,3.0,81,0.00,,,0.00,0,Wunderground v.1.15,2013-01-04 09:13:00,
2013-01-04 03:18:00,15.9,11.1,30.37,NW,315,0.0,3.0,81,0.00,,,0.00,0,Wunderground v.1.15,2013-01-04 09:18:00,
2013-01-04 03:25:00,15.7,10.9,30.37,NW,315,0.0,3.0,81,0.00,,,0.00,0,Wunderground v.1.15,2013-01-04 09:25:00,
2013-01-04 03:31:00,15.6,11.1,30.37,NW,315,0.0,3.0,82,0.00,,,0.00,0,Wunderground v.1.15,2013-01-04 09:31:00,
2013-01-04 03:36:00,15.6,11.1,30.37,NW,315,0.0,3.0,82,0.00,,,0.00,0,Wunderground v.1.15,2013-01-04 09:36:00,
2013-01-04 03:43:00,15.6,11.1,30.37,NW,315,1.0,3.0,82,0.00,,,0.00,0,Wunderground v.1.15,2013-01-04 09:43:00,
2013-01-04 03:49:00,15.5,11.0,30.36,NW,315,0.0,3.0,82,0.00,,,0.00,0,Wunderground v.1.15,2013-01-04 09:49:00,
2013-01-04 03:54:00,15.4,10.9,30.35,NW,315,0.0,3.0,82,0.00,,,0.00,0,Wunderground v.1.15,2013-01-04 09:54:00,
2013-01-04 04:00:00,15.3,10.8,30.36,NW,315,0.0,3.0,82,0.00,,,0.00,0,Wunderground v.1.15,2013-01-04 10:00:00,
2013-01-04 04:06:00,15.3,10.8,30.35,NW,315,0.0,3.0,82,0.00,,,0.00,0,Wunderground v.1.15,2013-01-04 10:06:00,
2013-01-04 04:13:00,15.2,10.7,30.35,NW,315,0.0,3.0,82,0.00,,,0.00,0,Wunderground v.1.15,2013-01-04 10:13:00,
2013-01-04 04:18:00,14.9,10.4,30.35,NW,315,0.0,3.0,82,0.00,,,0.00,0,Wunderground v.1.15,2013-01-04 10:18:00,
2013-01-04 04:25:00,14.8,10.3,30.35,NW,315,0.0,3.0,82,0.00,,,0.00,0,Wunderground v.1.15,2013-01-04 10:25:00,
2013-01-04 04:30:00,14.8,10.3,30.35,NW,315,0.0,3.0,82,0.00,,,0.00,0,Wunderground v.1.15,2013-01-04 10:30:00,
2013-01-04 04:36:00,14.9,10.7,30.35,NW,315,0.0,3.0,83,0.00,,,0.00,0,Wunderground v.1.15,2013-01-04 10:36:00,
2013-01-04 04:42:00,14.9,10.7,30.37,WNW,297,1.0,4.0,83,0.00,,,0.00,0,Wunderground v.1.15,2013-01-04 10:42:00,
2013-01-04 04:49:00,15.0,10.8,30.36,West,274,4.0,5.0,83,0.00,,,0.00,0,Wunderground v.1.15,2013-01-04 10:49:00,
2013-01-04 04:54:00,15.3,11.1,30.37,West,273,4.0,6.0,83,0.00,,,0.00,0,Wunderground v.1.15,2013-01-04 10:54:00,
2013-01-04 05:00:00,15.5,11.5,30.36,West,272,4.0,4.0,84,0.00,,,0.00,0,Wunderground v.1.15,2013-01-04 11:00:00,
2013-01-04 05:06:00,15.8,11.8,30.36,West,272,4.0,4.0,84,0.00,,,0.00,0,Wunderground v.1.15,2013-01-04 11:06:00,
2013-01-04 05:13:00,16.1,12.1,30.36,West,272,3.0,4.0,84,0.00,,,0.00,0,Wunderground v.1.15,2013-01-04 11:13:00,
2013-01-04 05:18:00,16.3,12.3,30.36,West,272,3.0,3.0,84,0.00,,,0.00,0,Wunderground v.1.15,2013-01-04 11:18:00,
2013-01-04 05:25:00,16.5,12.5,30.36,West,264,4.0,5.0,84,0.00,,,0.00,0,Wunderground v.1.15,2013-01-04 11:25:00,
2013-01-04 05:30:00,16.7,12.7,30.36,West,259,5.0,5.0,84,0.00,,,0.00,0,Wunderground v.1.15,2013-01-04 11:30:00,
2013-01-04 05:37:00,17.2,13.5,30.35,WSW,251,5.0,7.0,85,0.00,,,0.00,0,Wunderground v.1.15,2013-01-04 11:37:00,
2013-01-04 05:42:00,17.6,13.9,30.35,WSW,244,5.0,7.0,85,0.00,,,0.00,0,Wunderground v.1.15,2013-01-04 11:42:00,
2013-01-04 05:48:00,18.0,14.3,30.35,WSW,241,5.0,6.0,85,0.00,,,0.00,0,Wunderground v.1.15,2013-01-04 11:48:00,
2013-01-04 05:55:00,18.3,14.5,30.35,WSW,238,5.0,7.0,85,0.00,,,0.00,0,Wunderground v.1.15,2013-01-04 11:55:00,
2013-01-04 06:00:00,18.5,14.7,30.35,WSW,237,4.0,5.0,85,0.00,,,0.00,0,Wunderground v.1.15,2013-01-04 12:00:00,
2013-01-04 06:07:00,18.5,14.7,30.35,WSW,237,4.0,5.0,85,0.00,,,0.00,0,Wunderground v.1.15,2013-01-04 12:07:00,
2013-01-04 06:12:00,18.6,14.8,30.35,WSW,237,4.0,4.0,85,0.00,,,0.00,0,Wunderground v.1.15,2013-01-04 12:12:00,
2013-01-04 06:18:00,18.6,14.8,30.36,WSW,237,4.0,5.0,85,0.00,,,0.00,0,Wunderground v.1.15,2013-01-04 12:18:00,
2013-01-04 06:25:00,18.8,15.0,30.35,WSW,237,3.0,5.0,85,0.00,,,0.00,0,Wunderground v.1.15,2013-01-04 12:25:00,
2013-01-04 06:30:00,18.8,15.0,30.35,WSW,237,3.0,4.0,85,0.00,,,0.00,0,Wunderground v.1.15,2013-01-04 12:30:00,
2013-01-04 06:37:00,18.8,15.0,30.35,WSW,237,3.0,4.0,85,0.00,,,0.00,0,Wunderground v.1.15,2013-01-04 12:37:00,
2013-01-04 06:43:00,18.6,14.6,30.35,WSW,237,3.0,4.0,84,0.00,,,0.00,0,Wunderground v.1.15,2013-01-04 12:43:00,
2013-01-04 06:48:00,18.4,14.4,30.35,WSW,237,3.0,5.0,84,0.00,,,0.00,0,Wunderground v.1.15,2013-01-04 12:48:00,
2013-01-04 06:55:00,18.3,14.3,30.35,WSW,237,3.0,5.0,84,0.00,,,0.00,0,Wunderground v.1.15,2013-01-04 12:55:00,
2013-01-04 07:00:00,18.2,14.2,30.35,WSW,237,3.0,4.0,84,0.00,,,0.00,0,Wunderground v.1.15,2013-01-04 13:00:00,
2013-01-04 07:07:00,18.1,14.1,30.35,WSW,237,3.0,4.0,84,0.00,,,0.00,0,Wunderground v.1.15,2013-01-04 13:07:00,
2013-01-04 07:12:00,18.0,14.0,30.35,WSW,237,3.0,3.0,84,0.00,,,0.00,0,Wunderground v.1.15,2013-01-04 13:12:00,
2013-01-04 07:18:00,17.9,13.9,30.35,WSW,237,3.0,3.0,84,0.00,,,0.00,0,Wunderground v.1.15,2013-01-04 13:18:00,
2013-01-04 07:25:00,17.9,13.9,30.35,WSW,237,3.0,3.0,84,0.00,,,0.00,0,Wunderground v.1.15,2013-01-04 13:25:00,
2013-01-04 07:30:00,17.9,13.9,30.35,WSW,237,2.0,3.0,84,0.00,,,0.00,0,Wunderground v.1.15,2013-01-04 13:30:00,
2013-01-04 07:37:00,17.9,13.9,30.35,WSW,237,2.0,3.0,84,0.00,,,0.00,0,Wunderground v.1.15,2013-01-04 13:37:00,
2013-01-04 07:42:00,17.8,13.8,30.35,WSW,237,2.0,3.0,84,0.00,,,0.00,0,Wunderground v.1.15,2013-01-04 13:42:00,
2013-01-04 07:48:00,17.8,13.8,30.35,WSW,237,2.0,3.0,84,0.00,,,0.00,5,Wunderground v.1.15,2013-01-04 13:48:00,
2013-01-04 07:55:00,17.7,13.7,30.35,WSW,237,2.0,3.0,84,0.00,,,0.00,7,Wunderground v.1.15,2013-01-04 13:55:00,
2013-01-04 08:01:00,17.6,13.6,30.35,WSW,237,1.0,3.0,84,0.00,,,0.00,9,Wunderground v.1.15,2013-01-04 14:01:00,
2013-01-04 08:06:00,17.5,13.2,30.35,WSW,237,0.0,3.0,83,0.00,,,0.00,12,Wunderground v.1.15,2013-01-04 14:06:00,
2013-01-04 08:13:00,16.7,12.2,30.35,WSW,237,0.0,3.0,82,0.00,,,0.00,16,Wunderground v.1.15,2013-01-04 14:13:00,
2013-01-04 08:18:00,16.0,11.7,30.35,WSW,237,0.0,3.0,83,0.00,,,0.00,21,Wunderground v.1.15,2013-01-04 14:18:00,
2013-01-04 08:25:00,16.3,12.3,30.35,WSW,237,1.0,3.0,84,0.00,,,0.00,23,Wunderground v.1.15,2013-01-04 14:25:00,
2013-01-04 08:30:00,18.1,14.4,30.35,WSW,237,2.0,3.0,85,0.00,,,0.00,30,Wunderground v.1.15,2013-01-04 14:30:00,
2013-01-04 08:37:00,19.8,16.3,30.35,WSW,237,3.0,3.0,86,0.00,,,0.00,51,Wunderground v.1.15,2013-01-04 14:37:00,
2013-01-04 08:42:00,21.3,17.8,30.35,WSW,237,4.0,4.0,86,0.00,,,0.00,76,Wunderground v.1.15,2013-01-04 14:42:00,
2013-01-04 08:49:00,23.0,19.4,30.35,SW,236,4.0,6.0,86,0.00,,,0.00,90,Wunderground v.1.15,2013-01-04 14:49:00,
2013-01-04 08:54:00,23.8,20.2,30.35,SW,235,4.0,6.0,86,0.00,,,0.00,100,Wunderground v.1.15,2013-01-04 14:54:00,
2013-01-04 09:01:00,25.0,21.1,30.35,SW,235,4.0,7.0,85,0.00,,,0.00,116,Wunderground v.1.15,2013-01-04 15:01:00,
2013-01-04 09:06:00,25.7,21.5,30.36,SW,235,4.0,7.0,84,0.00,,,0.00,132,Wunderground v.1.15,2013-01-04 15:06:00,
2013-01-04 09:12:00,26.3,21.8,30.36,SW,235,4.0,4.0,83,0.00,,,0.00,151,Wunderground v.1.15,2013-01-04 15:12:00,
2013-01-04 09:19:00,26.9,22.1,30.35,SW,235,3.0,3.0,82,0.00,,,0.00,171,Wunderground v.1.15,2013-01-04 15:19:00,
2013-01-04 09:25:00,27.6,22.8,30.36,SW,225,4.0,6.0,82,0.00,,,0.00,207,Wunderground v.1.15,2013-01-04 15:25:00,
2013-01-04 09:30:00,28.2,22.8,30.36,SSW,212,5.0,10.0,80,0.00,,,0.00,221,Wunderground v.1.15,2013-01-04 15:30:00,
2013-01-04 09:37:00,29.0,23.6,30.36,SSW,206,6.0,10.0,80,0.00,,,0.00,178,Wunderground v.1.15,2013-01-04 15:37:00,
2013-01-04 09:42:00,29.3,23.6,30.36,SSW,206,7.0,10.0,79,0.00,,,0.00,144,Wunderground v.1.15,2013-01-04 15:42:00,
2013-01-04 09:49:00,29.8,23.8,30.36,SSW,203,7.0,7.0,78,0.00,,,0.00,146,Wunderground v.1.15,2013-01-04 15:49:00,
2013-01-04 09:54:00,30.2,23.9,30.36,SSW,206,7.0,9.0,77,0.00,,,0.00,176,Wunderground v.1.15,2013-01-04 15:54:00,
2013-01-04 10:00:00,30.3,23.6,30.36,SSW,206,7.0,8.0,76,0.00,,,0.00,290,Wunderground v.1.15,2013-01-04 16:00:00,
2013-01-04 10:07:00,30.7,24.0,30.36,SSW,202,7.0,8.0,76,0.00,,,0.00,315,Wunderground v.1.15,2013-01-04 16:07:00,
2013-01-04 10:12:00,30.7,23.4,30.36,SSW,208,7.0,7.0,74,0.00,,,0.00,353,Wunderground v.1.15,2013-01-04 16:12:00,
2013-01-04 10:19:00,31.4,24.4,30.36,SSW,212,6.0,7.0,75,0.00,,,0.00,394,Wunderground v.1.15,2013-01-04 16:19:00,
2013-01-04 10:24:00,31.9,24.6,30.36,SSW,205,7.0,9.0,74,0.00,,,0.00,394,Wunderground v.1.15,2013-01-04 16:24:00,
2013-01-04 10:31:00,32.3,24.9,30.36,SSW,200,7.0,7.0,74,0.00,,,0.00,397,Wunderground v.1.15,2013-01-04 16:31:00,
2013-01-04 10:37:00,32.7,24.7,30.36,SSW,202,7.0,8.0,72,0.00,,,0.00,411,Wunderground v.1.15,2013-01-04 16:37:00,
2013-01-04 10:42:00,33.1,24.7,30.36,SSW,205,7.0,9.0,71,0.00,,,0.00,420,Wunderground v.1.15,2013-01-04 16:42:00,
2013-01-04 10:49:00,33.8,25.4,30.36,SSW,200,6.0,9.0,71,0.00,,,0.00,432,Wunderground v.1.15,2013-01-04 16:49:00,
2013-01-04 10:55:00,34.3,25.5,30.36,SSW,202,6.0,9.0,70,0.00,,,0.00,441,Wunderground v.1.15,2013-01-04 16:55:00,
2013-01-04 11:00:00,34.8,25.7,30.36,SSW,208,6.0,7.0,69,0.00,,,0.00,454,Wunderground v.1.15,2013-01-04 17:00:00,
2013-01-04 11:07:00,35.1,25.6,30.36,SSW,202,7.0,9.0,68,0.00,,,0.00,464,Wunderground v.1.15,2013-01-04 17:07:00,
2013-01-04 11:13:00,35.6,25.7,30.35,SSW,204,8.0,8.0,67,0.00,,,0.00,473,Wunderground v.1.15,2013-01-04 17:13:00,
2013-01-04 11:18:00,36.3,26.7,30.35,SSW,203,7.0,10.0,68,0.00,,,0.00,480,Wunderground v.1.15,2013-01-04 17:18:00,
2013-01-04 11:24:00,36.8,26.5,30.35,SSW,202,7.0,10.0,66,0.00,,,0.00,487,Wunderground v.1.15,2013-01-04 17:24:00,
2013-01-04 11:30:00,37.0,25.9,30.35,SSW,198,9.0,11.0,64,0.00,,,0.00,492,Wunderground v.1.15,2013-01-04 17:30:00,
2013-01-04 11:37:00,36.9,25.9,30.34,SSW,201,9.0,11.0,64,0.00,,,0.00,501,Wunderground v.1.15,2013-01-04 17:37:00,
2013-01-04 11:42:00,37.1,26.0,30.34,SSW,200,8.0,10.0,64,0.00,,,0.00,506,Wunderground v.1.15,2013-01-04 17:42:00,
2013-01-04 11:48:00,37.6,26.1,30.33,SSW,208,8.0,8.0,63,0.00,,,0.00,424,Wunderground v.1.15,2013-01-04 17:48:00,
2013-01-04 11:55:00,37.9,26.8,30.33,SSW,197,8.0,8.0,64,0.00,,,0.00,325,Wunderground v.1.15,2013-01-04 17:55:00,
2013-01-04 12:01:00,38.5,27.0,30.33,SW,218,8.0,8.0,63,0.00,,,0.00,517,Wunderground v.1.15,2013-01-04 18:01:00,
2013-01-04 12:06:00,39.0,27.1,30.32,SSW,195,7.0,11.0,62,0.00,,,0.00,519,Wunderground v.1.15,2013-01-04 18:06:00,
2013-01-04 12:13:00,39.7,26.9,30.32,SSW,198,8.0,10.0,60,0.00,,,0.00,524,Wunderground v.1.15,2013-01-04 18:13:00,
2013-01-04 12:18:00,40.2,27.0,30.31,SSW,199,8.0,8.0,59,0.00,,,0.00,524,Wunderground v.1.15,2013-01-04 18:18:00,
2013-01-04 12:24:00,40.8,27.2,30.32,SSW,197,7.0,9.0,58,0.00,,,0.00,526,Wunderground v.1.15,2013-01-04 18:24:00,
2013-01-04 12:31:00,40.9,26.8,30.31,SSW,208,7.0,8.0,57,0.00,,,0.00,527,Wunderground v.1.15,2013-01-04 18:31:00,
2013-01-04 12:37:00,41.5,27.4,30.31,SW,214,8.0,9.0,57,0.00,,,0.00,427,Wunderground v.1.15,2013-01-04 18:37:00,
2013-01-04 12:42:00,41.5,27.0,30.31,SSW,192,8.0,11.0,56,0.00,,,0.00,527,Wunderground v.1.15,2013-01-04 18:42:00,
2013-01-04 12:49:00,42.1,27.5,30.30,SSW,202,8.0,11.0,56,0.00,,,0.00,527,Wunderground v.1.15,2013-01-04 18:49:00,
2013-01-04 12:54:00,42.2,27.6,30.30,SSW,204,9.0,11.0,56,0.00,,,0.00,526,Wunderground v.1.15,2013-01-04 18:54:00,
2013-01-04 13:01:00,42.5,27.5,30.29,SSW,199,9.0,9.0,55,0.00,,,0.00,524,Wunderground v.1.15,2013-01-04 19:01:00,
2013-01-04 13:06:00,42.8,27.7,30.29,SSW,202,8.0,9.0,55,0.00,,,0.00,520,Wunderground v.1.15,2013-01-04 19:06:00,
2013-01-04 13:12:00,43.1,27.6,30.29,SSW,195,8.0,8.0,54,0.00,,,0.00,519,Wunderground v.1.15,2013-01-04 19:12:00,
2013-01-04 13:20:00,43.5,27.9,30.28,SSW,202,9.0,10.0,54,0.00,,,0.00,513,Wunderground v.1.15,2013-01-04 19:20:00,
2013-01-04 13:27:00,43.5,27.5,30.28,SSW,204,9.0,12.0,53,0.00,,,0.00,510,Wunderground v.1.15,2013-01-04 19:27:00,
2013-01-04 13:32:00,43.5,27.5,30.28,SSW,212,9.0,12.0,53,0.00,,,0.00,503,Wunderground v.1.15,2013-01-04 19:32:00,
2013-01-04 13:38:00,43.8,27.8,30.28,SSW,203,9.0,9.0,53,0.00,,,0.00,499,Wunderground v.1.15,2013-01-04 19:38:00,
2013-01-04 13:45:00,44.1,27.6,30.27,SW,218,8.0,9.0,52,0.00,,,0.00,492,Wunderground v.1.15,2013-01-04 19:45:00,
2013-01-04 13:51:00,44.4,28.3,30.27,SSW,206,8.0,10.0,53,0.00,,,0.00,483,Wunderground v.1.15,2013-01-04 19:51:00,
2013-01-04 13:56:00,44.6,27.1,30.27,SW,215,9.0,14.0,50,0.00,,,0.00,478,Wunderground v.1.15,2013-01-04 19:56:00,
2013-01-04 14:02:00,44.6,27.1,30.27,SSW,208,10.0,14.0,50,0.00,,,0.00,471,Wunderground v.1.15,2013-01-04 20:02:00,
2013-01-04 14:09:00,44.7,27.2,30.27,SSW,198,10.0,10.0,50,0.00,,,0.00,466,Wunderground v.1.15,2013-01-04 20:09:00,
2013-01-04 14:14:00,44.8,27.3,30.27,SSW,207,10.0,11.0,50,0.00,,,0.00,239,Wunderground v.1.15,2013-01-04 20:14:00,
2013-01-04 14:21:00,44.8,27.3,30.26,SSW,201,10.0,13.0,50,0.00,,,0.00,49,Wunderground v.1.15,2013-01-04 20:21:00,
2013-01-04 14:26:00,44.6,27.6,30.26,SW,214,11.0,17.0,51,0.00,,,0.00,56,Wunderground v.1.15,2013-01-04 20:26:00,
2013-01-04 14:32:00,44.7,27.7,30.26,SSW,199,10.0,11.0,51,0.00,,,0.00,56,Wunderground v.1.15,2013-01-04 20:32:00,
2013-01-04 14:38:00,44.8,27.3,30.26,SSW,209,8.0,10.0,50,0.00,,,0.00,46,Wunderground v.1.15,2013-01-04 20:38:00,
2013-01-04 14:45:00,43.9,26.4,30.26,SSW,210,9.0,11.0,50,0.00,,,0.00,62,Wunderground v.1.15,2013-01-04 20:45:00,
2013-01-04 14:50:00,42.9,26.5,30.26,SW,223,8.0,8.0,52,0.00,,,0.00,104,Wunderground v.1.15,2013-01-04 20:50:00,
2013-01-04 14:57:00,43.0,27.0,30.26,SW,218,7.0,9.0,53,0.00,,,0.00,135,Wunderground v.1.15,2013-01-04 20:57:00,
2013-01-04 15:02:00,44.0,27.5,30.26,SSW,202,7.0,7.0,52,0.00,,,0.00,127,Wunderground v.1.15,2013-01-04 21:02:00,
2013-01-04 15:08:00,44.8,27.3,30.26,South,189,7.0,7.0,50,0.00,,,0.00,88,Wunderground v.1.15,2013-01-04 21:08:00,
2013-01-04 15:15:00,45.0,27.5,30.26,SW,218,7.0,8.0,50,0.00,,,0.00,83,Wunderground v.1.15,2013-01-04 21:15:00,
2013-01-04 15:21:00,45.1,28.0,30.26,SW,222,5.0,6.0,51,0.00,,,0.00,54,Wunderground v.1.15,2013-01-04 21:21:00,
2013-01-04 15:27:00,45.2,27.6,30.25,WSW,245,6.0,9.0,50,0.00,,,0.00,46,Wunderground v.1.15,2013-01-04 21:27:00,
2013-01-04 15:32:00,45.3,27.2,30.26,SW,215,7.0,9.0,49,0.00,,,0.00,83,Wunderground v.1.15,2013-01-04 21:32:00,
2013-01-04 15:38:00,45.3,27.7,30.25,SSW,201,7.0,10.0,50,0.00,,,0.00,35,Wunderground v.1.15,2013-01-04 21:38:00,
2013-01-04 15:45:00,45.4,28.3,30.25,SW,214,6.0,10.0,51,0.00,,,0.00,35,Wunderground v.1.15,2013-01-04 21:45:00,
2013-01-04 15:50:00,45.5,27.9,30.25,SW,217,5.0,6.0,50,0.00,,,0.00,35,Wunderground v.1.15,2013-01-04 21:50:00,
2013-01-04 15:57:00,45.6,28.0,30.25,SW,214,5.0,7.0,50,0.00,,,0.00,163,Wunderground v.1.15,2013-01-04 21:57:00,
2013-01-04 16:02:00,45.6,28.0,30.25,SW,214,5.0,6.0,50,0.00,,,0.00,211,Wunderground v.1.15,2013-01-04 22:02:00,
2013-01-04 16:09:00,45.5,27.9,30.25,SW,214,3.0,3.0,50,0.00,,,0.00,44,Wunderground v.1.15,2013-01-04 22:09:00,
2013-01-04 16:14:00,45.3,27.7,30.25,SW,216,4.0,5.0,50,0.00,,,0.00,30,Wunderground v.1.15,2013-01-04 22:14:00,
2013-01-04 16:21:00,44.9,27.8,30.24,SW,216,3.0,4.0,51,0.00,,,0.00,23,Wunderground v.1.15,2013-01-04 22:21:00,
2013-01-04 16:27:00,44.0,27.5,30.24,SW,216,2.0,4.0,52,0.00,,,0.00,25,Wunderground v.1.15,2013-01-04 22:27:00,
2013-01-04 16:32:00,43.1,27.6,30.24,SW,216,1.0,3.0,54,0.00,,,0.00,26,Wunderground v.1.15,2013-01-04 22:32:00,
2013-01-04 16:39:00,42.4,27.4,30.24,SW,216,1.0,1.0,55,0.00,,,0.00,26,Wunderground v.1.15,2013-01-04 22:39:00,
2013-01-04 16:44:00,41.8,27.2,30.24,SW,216,0.0,3.0,56,0.00,,,0.00,23,Wunderground v.1.15,2013-01-04 22:44:00,
2013-01-04 16:50:00,41.4,27.3,30.24,SW,216,0.0,3.0,57,0.00,,,0.00,19,Wunderground v.1.15,2013-01-04 22:50:00,
2013-01-04 16:56:00,41.1,27.0,30.24,SW,216,0.0,3.0,57,0.00,,,0.00,19,Wunderground v.1.15,2013-01-04 22:56:00,
2013-01-04 17:03:00,40.9,26.8,30.24,SW,216,0.0,3.0,57,0.00,,,0.00,16,Wunderground v.1.15,2013-01-04 23:03:00,
2013-01-04 17:08:00,40.5,26.9,30.23,SW,216,0.0,3.0,58,0.00,,,0.00,14,Wunderground v.1.15,2013-01-04 23:08:00,
2013-01-04 17:15:00,39.7,26.5,30.24,SW,216,0.0,3.0,59,0.00,,,0.00,11,Wunderground v.1.15,2013-01-04 23:15:00,
2013-01-04 17:20:00,39.0,26.7,30.23,SW,216,0.0,3.0,61,0.00,,,0.00,5,Wunderground v.1.15,2013-01-04 23:20:00,
2013-01-04 17:27:00,37.9,26.0,30.23,SW,216,0.0,3.0,62,0.00,,,0.00,0,Wunderground v.1.15,2013-01-04 23:27:00,
2013-01-04 17:32:00,37.3,26.2,30.24,SW,216,0.0,3.0,64,0.00,,,0.00,0,Wunderground v.1.15,2013-01-04 23:32:00,
2013-01-04 17:38:00,37.0,26.3,30.23,SW,216,1.0,3.0,65,0.00,,,0.00,0,Wunderground v.1.15,2013-01-04 23:38:00,
2013-01-04 17:45:00,36.5,26.2,30.24,SW,216,2.0,3.0,66,0.00,,,0.00,0,Wunderground v.1.15,2013-01-04 23:45:00,
2013-01-04 17:50:00,36.1,25.8,30.23,SW,216,2.0,3.0,66,0.00,,,0.00,0,Wunderground v.1.15,2013-01-04 23:50:00,
2013-01-04 17:57:00,35.7,25.8,30.23,SW,216,2.0,3.0,67,0.00,,,0.00,0,Wunderground v.1.15,2013-01-04 23:57:00,
2013-01-04 18:02:00,35.6,25.7,30.23,SW,216,3.0,3.0,67,0.00,,,0.00,0,Wunderground v.1.15,2013-01-05 00:02:00,
2013-01-04 18:09:00,35.4,25.5,30.23,SSW,206,3.0,4.0,67,0.00,,,0.00,0,Wunderground v.1.15,2013-01-05 00:09:00,
2013-01-04 18:14:00,35.4,25.2,30.23,SSW,205,3.0,4.0,66,0.00,,,0.00,0,Wunderground v.1.15,2013-01-05 00:14:00,
2013-01-04 18:21:00,35.1,24.9,30.24,SSW,205,3.0,4.0,66,0.00,,,0.00,0,Wunderground v.1.15,2013-01-05 00:21:00,
2013-01-04 18:26:00,35.2,25.0,30.24,SSW,202,3.0,5.0,66,0.00,,,0.00,0,Wunderground v.1.15,2013-01-05 00:26:00,
2013-01-04 18:32:00,35.4,25.2,30.24,SSW,192,5.0,7.0,66,0.00,,,0.00,0,Wunderground v.1.15,2013-01-05 00:32:00,
2013-01-04 18:39:00,35.7,25.8,30.24,South,188,5.0,5.0,67,0.00,,,0.00,0,Wunderground v.1.15,2013-01-05 00:39:00,
2013-01-04 18:44:00,36.3,26.0,30.24,South,191,6.0,6.0,66,0.00,,,0.00,0,Wunderground v.1.15,2013-01-05 00:44:00,
2013-01-04 18:51:00,37.0,26.3,30.24,South,191,6.0,7.0,65,0.00,,,0.00,0,Wunderground v.1.15,2013-01-05 00:51:00,
2013-01-04 18:56:00,37.5,26.4,30.24,SSW,193,6.0,7.0,64,0.00,,,0.00,0,Wunderground v.1.15,2013-01-05 00:56:00,
2013-01-04 19:02:00,37.7,26.2,30.24,South,191,6.0,7.0,63,0.00,,,0.00,0,Wunderground v.1.15,2013-01-05 01:02:00,
2013-01-04 19:08:00,37.8,25.9,30.24,South,190,7.0,7.0,62,0.00,,,0.00,0,Wunderground v.1.15,2013-01-05 01:08:00,
2013-01-04 19:14:00,37.8,25.9,30.24,SSW,194,6.0,8.0,62,0.00,,,0.00,0,Wunderground v.1.15,2013-01-05 01:14:00,
2013-01-04 19:20:00,37.7,25.5,30.24,South,189,6.0,7.0,61,0.00,,,0.00,0,Wunderground v.1.15,2013-01-05 01:20:00,
2013-01-04 19:27:00,37.4,25.2,30.24,South,191,6.0,7.0,61,0.00,,,0.00,0,Wunderground v.1.15,2013-01-05 01:27:00,
2013-01-04 19:32:00,37.1,25.3,30.24,South,188,6.0,6.0,62,0.00,,,0.00,0,Wunderground v.1.15,2013-01-05 01:32:00,
2013-01-04 19:39:00,36.8,25.4,30.24,South,188,6.0,10.0,63,0.00,,,0.00,0,Wunderground v.1.15,2013-01-05 01:39:00,
2013-01-04 19:44:00,36.6,25.6,30.25,South,190,6.0,10.0,64,0.00,,,0.00,0,Wunderground v.1.15,2013-01-05 01:44:00,
2013-01-04 19:51:00,36.3,25.7,30.25,SSW,197,6.0,6.0,65,0.00,,,0.00,0,Wunderground v.1.15,2013-01-05 01:51:00,
2013-01-04 19:57:00,36.3,26.0,30.24,South,191,7.0,8.0,66,0.00,,,0.00,0,Wunderground v.1.15,2013-01-05 01:57:00,
2013-01-04 20:02:00,36.3,26.0,30.24,South,190,8.0,12.0,66,0.00,,,0.00,0,Wunderground v.1.15,2013-01-05 02:02:00,
2013-01-04 20:08:00,36.5,26.2,30.24,SSW,194,8.0,8.0,66,0.00,,,0.00,0,Wunderground v.1.15,2013-01-05 02:08:00,
2013-01-04 20:14:00,36.5,26.2,30.24,SSW,202,7.0,9.0,66,0.00,,,0.00,0,Wunderground v.1.15,2013-01-05 02:14:00,
2013-01-04 20:21:00,36.5,26.2,30.24,SSW,195,7.0,7.0,66,0.00,,,0.00,0,Wunderground v.1.15,2013-01-05 02:21:00,
2013-01-04 20:26:00,36.5,26.6,30.24,SSW,197,8.0,9.0,67,0.00,,,0.00,0,Wunderground v.1.15,2013-01-05 02:26:00,
2013-01-04 20:33:00,36.4,26.5,30.23,South,189,8.0,10.0,67,0.00,,,0.00,0,Wunderground v.1.15,2013-01-05 02:33:00,
2013-01-04 20:38:00,36.1,26.2,30.24,SSW,196,9.0,9.0,67,0.00,,,0.00,0,Wunderground v.1.15,2013-01-05 02:38:00,
2013-01-04 20:47:00,35.8,26.3,30.24,SSW,199,8.0,13.0,68,0.00,,,0.00,0,Wunderground v.1.15,2013-01-05 02:47:00,
2013-01-04 20:52:00,35.6,26.1,30.23,SSW,196,8.0,8.0,68,0.00,,,0.00,0,Wunderground v.1.15,2013-01-05 02:52:00,
2013-01-04 20:59:00,35.3,26.1,30.23,SSW,195,7.0,7.0,69,0.00,,,0.00,0,Wunderground v.1.15,2013-01-05 02:59:00,
2013-01-04 21:04:00,35.1,26.3,30.23,SSW,197,7.0,8.0,70,0.00,,,0.00,0,Wunderground v.1.15,2013-01-05 03:04:00,
2013-01-04 21:10:00,34.8,26.0,30.23,SSW,202,6.0,7.0,70,0.00,,,0.00,0,Wunderground v.1.15,2013-01-05 03:10:00,
2013-01-04 21:16:00,34.6,26.2,30.23,SSW,195,6.0,8.0,71,0.00,,,0.00,0,Wunderground v.1.15,2013-01-05 03:16:00,
2013-01-04 21:23:00,34.4,26.0,30.23,SSW,198,7.0,9.0,71,0.00,,,0.00,0,Wunderground v.1.15,2013-01-05 03:23:00,
2013-01-04 21:28:00,34.2,26.1,30.23,SSW,199,7.0,8.0,72,0.00,,,0.00,0,Wunderground v.1.15,2013-01-05 03:28:00,
2013-01-04 21:34:00,34.1,26.0,30.23,SSW,201,7.0,8.0,72,0.00,,,0.00,0,Wunderground v.1.15,2013-01-05 03:34:00,
2013-01-04 21:41:00,34.1,26.3,30.23,SSW,204,7.0,7.0,73,0.00,,,0.00,0,Wunderground v.1.15,2013-01-05 03:41:00,
2013-01-04 21:46:00,34.0,26.3,30.23,SSW,201,7.0,7.0,73,0.00,,,0.00,0,Wunderground v.1.15,2013-01-05 03:46:00,
2013-01-04 21:53:00,33.8,26.1,30.23,SSW,203,7.0,7.0,73,0.00,,,0.00,0,Wunderground v.1.15,2013-01-05 03:53:00,
2013-01-04 21:58:00,33.7,26.0,30.24,SSW,199,6.0,6.0,73,0.00,,,0.00,0,Wunderground v.1.15,2013-01-05 03:58:00,
2013-01-04 22:04:00,33.5,25.8,30.24,SSW,198,6.0,8.0,73,0.00,,,0.00,0,Wunderground v.1.15,2013-01-05 04:04:00,
2013-01-04 22:11:00,33.3,25.9,30.24,SSW,193,6.0,9.0,74,0.00,,,0.00,0,Wunderground v.1.15,2013-01-05 04:11:00,
2013-01-04 22:16:00,33.2,25.8,30.24,SSW,197,7.0,9.0,74,0.00,,,0.00,0,Wunderground v.1.15,2013-01-05 04:16:00,
2013-01-04 22:23:00,33.0,25.9,30.24,SSW,195,6.0,7.0,75,0.00,,,0.00,0,Wunderground v.1.15,2013-01-05 04:23:00,
2013-01-04 22:28:00,33.0,25.9,30.24,SSW,195,6.0,8.0,75,0.00,,,0.00,0,Wunderground v.1.15,2013-01-05 04:28:00,
2013-01-04 22:35:00,33.0,26.3,30.24,SSW,193,6.0,8.0,76,0.00,,,0.00,0,Wunderground v.1.15,2013-01-05 04:35:00,
2013-01-04 22:40:00,33.1,26.4,30.24,South,191,6.0,7.0,76,0.00,,,0.00,0,Wunderground v.1.15,2013-01-05 04:40:00,
2013-01-04 22:47:00,33.3,26.5,30.23,South,190,6.0,7.0,76,0.00,,,0.00,0,Wunderground v.1.15,2013-01-05 04:47:00,
2013-01-04 22:52:00,33.5,26.7,30.23,SSW,192,6.0,8.0,76,0.00,,,0.00,0,Wunderground v.1.15,2013-01-05 04:52:00,
2013-01-04 22:58:00,33.6,26.8,30.23,South,191,6.0,6.0,76,0.00,,,0.00,0,Wunderground v.1.15,2013-01-05 04:58:00,
2013-01-04 23:01:00,33.7,26.9,30.23,South,191,5.0,7.0,76,0.00,,,0.00,0,Wunderground v.1.15,2013-01-05 05:01:00,
2013-01-04 23:03:00,33.7,26.9,30.23,South,191,6.0,7.0,76,0.00,,,0.00,0,Wunderground v.1.15,2013-01-05 05:03:00,
2013-01-04 23:08:00,33.9,27.1,30.23,South,189,6.0,6.0,76,0.00,,,0.00,0,Wunderground v.1.15,2013-01-05 05:08:00,
2013-01-04 23:17:00,34.2,27.4,30.23,South,188,5.0,8.0,76,0.00,,,0.00,0,Wunderground v.1.15,2013-01-05 05:17:00,
2013-01-04 23:22:00,34.4,27.6,30.23,South,190,6.0,7.0,76,0.00,,,0.00,0,Wunderground v.1.15,2013-01-05 05:22:00,
2013-01-04 23:29:00,34.6,27.5,30.23,South,189,6.0,6.0,75,0.00,,,0.00,0,Wunderground v.1.15,2013-01-05 05:29:00,
2013-01-04 23:35:00,34.9,27.8,30.23,South,191,6.0,7.0,75,0.00,,,0.00,0,Wunderground v.1.15,2013-01-05 05:35:00,
2013-01-04 23:40:00,35.1,28.0,30.23,South,191,6.0,7.0,75,0.00,,,0.00,0,Wunderground v.1.15,2013-01-05 05:40:00,
2013-01-04 23:47:00,35.4,27.9,30.22,South,190,6.0,7.0,74,0.00,,,0.00,0,Wunderground v.1.15,2013-01-05 05:47:00,
2013-01-04 23:53:00,35.5,28.0,30.22,SSW,193,6.0,6.0,74,0.00,,,0.00,0,Wunderground v.1.15,2013-01-05 05:53:00,
2013-01-04 23:58:00,35.7,28.2,30.22,SSW,192,5.0,5.0,74,0.00,,,0.00,0,Wunderground v.1.15,2013-01-05 05:58:00,